User: anonymous   Login
Location: Caltech
(34.1382°N, 118.1253°W)
Time: 06:09:16
(UTC-08:00)
Language:

Oscar 10/S400 - Orbit

View from above orbital plane
View from above orbital plane
View from above satellite
View from above satellite

Ground track
Ground track

The orbit data is extracted from the following two-line orbital elements,

1 14129U 83058B   16339.17972174 -.00000167  00000-0  00000+0 0  9995
2 14129  26.8532  65.7646 6013431 253.0682  55.4597  2.05867700223808
Epoch (UTC): 04 December 2016 04:18:47
Eccentricity: 0.6013431
inclination: 26.8532°
perigee height: 4027 km
apogee height: 35420 km
right ascension of ascending node: 65.7646°
argument of perigee: 253.0682°
revolutions per day: 2.05867700
mean anomaly at epoch: 55.4597°
orbit number at epoch: 22380

The dashed part of the orbit path shows where the satellite is in the earth's shadow,  

DLR